{"data":{"norad_id":45703,"epoch":"2026-09-17T17:22:02.345664Z","epoch_age_seconds":251140,"freshness":"STALE","line1":"1 45703U 20035AY  26260.72363826  .00302259  49747-4  56741-3 0  9994","line2":"2 45703  53.0165  76.5968 0003240 299.5265  60.5441 16.00410743350586","mean_motion":16.00410743,"eccentricity":0.000324,"inclination_deg":53.0165,"raan_deg":76.5968,"arg_perigee_deg":299.5265,"mean_anomaly_deg":60.5441,"bstar":0.00056741,"rev_number":35058,"period_min":89.976901635932,"perigee_km":271.12534781191,"apogee_km":275.43546629168,"semimajor_km":6651.4174070518,"source":"CELESTRAK","updated_at":"2026-09-20T09:00:38.454518Z"}}